Regional Weather Roundup
Issued by NWS San Diego, CA

Home | Current Version | Previous Version | Text Only | Print | Product List | Glossary On
Versions: 1 2 3 4 5 6 7 8 9 10 11 12 13 14 15 16 17 18 19 20 21 22 23 24 25 26 27 28
000
ASUS46 KSGX 212011
RWRSGX

SAN DIEGO HOURLY WEATHER ROUNDUP
NATIONAL WEATHER SERVICE SAN DIEGO CA
100 PM PDT SAT APR 21 2018

NOTE: "FAIR" INDICATES FEW OR NO CLOUDS BELOW 12,000 FEET WITH NO
SIGNIFICANT WEATHER AND/OR OBSTRUCTIONS TO VISIBILITY.

CAZ042-043-060-061-PZZ750-775-212100-

GREATER SAN DIEGO AREA

CITY           SKY/WX    TMP DP  RH WIND       PRES   REMARKS
SAN DIEGO AP   PTSUNNY   68  54  60 NW14      30.04R
NATIONAL CITY    N/A     69  55  60 SW10      30.02S
CHULA VISTA      N/A     70  58  66 W7        29.94R
IMPERIAL BEACH PTSUNNY   65  55  70 W10       30.04F
BROWN FIELD    MOSUNNY   73  52  47 W12       30.02S
MIRAMAR MCAS   PTSUNNY   76  47  35 W12       30.02S
MONTGOMERY FLD PTSUNNY   75  42  30 W14       30.02S
GILLESPIE FLD  SUNNY     82  39  21 W7        30.00F

$$

NORTH SAN DIEGO COUNTY

CITY           SKY/WX    TMP DP  RH WIND       PRES   REMARKS
CAMP PENDLETON MOSUNNY   76  50  40 S9        29.99F
OCEANSIDE AP   MOSUNNY   68  52  56 SW15      30.01F
OCEANSIDE HBR    N/A     62  58  85 N2        30.05S
VISTA            N/A     78  51  39 W2        29.98F
CARLSBAD       MOSUNNY   67  52  58 W12G18    30.02S
DEL MAR          N/A     64  58  81 CALM      30.05S
LA JOLLA SCRIP   N/A     61  57  86 W3        30.03F
FALLBROOK        N/A     83  50  31 CALM      30.01F
ESCONDIDO        N/A     84  48  28 W5        30.00F
SAN MARCOS       N/A     80  52  37 NW3       30.04F
POWAY            N/A     82  52  34 CALM      30.00F

$$

EAST SAN DIEGO COUNTY

CITY           SKY/WX    TMP DP  RH WIND       PRES   REMARKS
RAMONA         PTSUNNY   81  38  21 W8        30.03F
SANTEE LAKES     N/A     83  47  27 SW3       29.99F
LA MESA          N/A     80  44  27 W3        29.96F
JAMUL            N/A     83  51  32 CALM      30.01F
CAMPO            N/A     82  25  12 E18G28    30.03F

$$

ORANGE COUNTY AND THE LOS ANGELES BASIN

CITY           SKY/WX    TMP DP  RH WIND       PRES   REMARKS
JOHN WAYNE AP  MOSUNNY   79  51  37 VRB7      30.01F
LAGUNA BEACH     N/A     67  59  76 CALM      29.98S
LAKE FOREST FR   N/A     85  40  19 W5        29.89F
HUNTINGTON BCH   N/A     69  56  62 W10       30.03F
LOS ALAMITOS   MOSUNNY   79  50  36 S9        30.00F
FULLERTON      SUNNY     86  42  21 VRB3      29.99F
LONG BEACH     SUNNY     84  49  29 SW3       30.01F
L.A. AP        MOSUNNY   69  50  50 W15       30.03F
L.A. DOWNTOWN  SUNNY     79  51  37 VRB5      30.01F

$$

THE INLAND EMPIRE

CITY           SKY/WX    TMP DP  RH WIND       PRES   REMARKS
CORONA         SUNNY     87  39  18 W7        30.00F
CHINO          MOSUNNY   88  39  17 W7        30.01F
ONTARIO        MOSUNNY   85  38  18 SW7       30.01F
SAN BERNARDINO   N/A     88  30  12 SW9       30.01F
RIVERSIDE AP   SUNNY     86  32  14 MISG      30.00F
MORENO VALLEY    N/A     87  39  18 W6        28.13F
MARCH ARB      MOSUNNY   85  26  12 NW3       30.02F
HORSETHIEF CYN   N/A     85  23  10 CALM      30.01F
PERRIS           N/A     86  33  15 W2        29.97F
HEMET EAST       N/A     84  22  10 W3        29.95F
FRENCH VALLEY  FAIR      86  28  12 SW7       30.02F
TEMECULA         N/A     86  35  16 E2        30.04F

$$

SAN BERNARDINO AND RIVERSIDE COUNTY MOUNTAINS

CITY           SKY/WX    TMP DP  RH WIND       PRES   REMARKS
BIG BEAR AP    SUNNY     61  14  16 E6        30.26F
ANGELUS OAKS     N/A     68  33  27 S2        30.00F

$$

SOUTHERN DESERT INCLUDING THE COACHELLA VALLEY

CITY           SKY/WX    TMP DP  RH WIND       PRES   REMARKS
PALM SPRINGS   SUNNY     92  25   9 VRB6      29.99F
THOUSAND PALMS   N/A     88  37  16 SE3       29.94F
PALM DESERT      N/A     93  40  15 CALM      31.57S
THERMAL        SUNNY     92  36  14 S8        29.95F
BLYTHE         SUNNY     88  31  13 NE9       29.99F
IMPERIAL AP    MOSUNNY   88  39  17 VRB5      29.97F
EL CENTRO NAS  PTSUNNY   89  29  11 E7        29.99F
YUMA AZ        MOSUNNY   87  31  13 CALM      29.98F
MEXICALI       PTSUNNY   88  28  11 S7        29.99

$$

UPPER DESERT

CITY           SKY/WX    TMP DP  RH WIND       PRES   REMARKS
VICTORVILLE AP SUNNY     79  19  11 NE6       30.12F
HESPERIA         N/A     80  27  14 E1        30.07F
APPLE VALLEY     N/A     81  26  13 NE3       30.09F
PALMDALE       SUNNY     80  28  15 NE8       30.12F
LANCASTER      SUNNY     78  24  13 SE5       30.11F
EDWARDS AFB    MOSUNNY   77  24  14 CALM      30.08F
DAGGETT        SUNNY     81  25  12 VRB5      30.07F
29 PALMS N     SUNNY     83  13   7 CALM      30.12F
NEEDLES        SUNNY     87  24  10 VRB3      30.01F

$$

REGIONAL REPORTS

CITY           SKY/WX    TMP DP  RH WIND       PRES   REMARKS
SANTA BARBARA  MOSUNNY   68  52  56 W9        30.04F
SANDBERG       SUNNY     73  26  17 E8G17     30.20F
LAS VEGAS NV   SUNNY     79  27  14 E7        30.08F
PHOENIX AZ     MOSUNNY   81  30  15 NW7       29.99F
TIJUANA        PTSUNNY   72  50  46 W15       30.04F

$$

OFFSHORE ISLANDS

CITY           SKY/WX    TMP DP  RH WIND       PRES   REMARKS
CATALINA ARPT  SUNNY     76  37  24 NW8       30.08F

$$

MARINE AND OFFSHORE BUOY REPORTS

STATION/POSITION SKY/WX   TEMP    WIND        PRES    VSBY  SWELL
                          AIR SEA DIR/SP/G                  HT/PER/DIR
                          (F)     (DEG/KT/KT) (MB)    (MI)  (FT/S/D)
TANNER BANKS               56 57              1017.8F
S CLEMENTE BASIN           60 62  270/  8/  8 1017.3F         5/200/17
SAN NICOLAS IS.               56                N/A           5/220/17
SO. S. ROSA ISLA           55 56  310/  6/  8 1018.2F         7/300/ 8
W. S. BARBARA CH              51  320/ 10/ 14 1017.9F         7/290/10
M. S. BARBARA CH           56 56  280/ 10/ 12 1018.4
S. MONICA BASIN                   260/  6/  8 1017.4F         3/260/ 7
S PEDRO CHANNEL               58                N/A           2/170/18
CMP PENDLETON NS              60                N/A           2/210/17
OCEANSIDE OFFSHR              59                N/A           2/190/15
TORREY PINES OTR              60                N/A           2/190/17
SAN DIEGO BAY                 62              1016.6R
POINT LOMA SOUTH              60                N/A           3/170/17

$$





USA.gov is the U.S. government's official web portal to all federal, state and local government web resources and services.